Temp
26 25 24 24 24 24 24 24 24 24 24 23 22 22 21 21 21 23 24 24 24 22 21 21 21 20 20 20 21 21 21 20 20 20 21 20 20 19 19 18 18 18 17 17 19 19 19 19 19 19 19 19 19 18 18 18 18 18 18 18 18 18 18 18 18 18 18 18 18 18 18 18 18 18 18 18 18 18 18 18 17 17 17 17 17 17
25 24 23 24 24 24 24 24 24 24 24 24 23 22 21 21 21 22 23 24 24 21 20 21 20 20 20 20 21 21 21 20 19 19 19 19 18 18 18 17 17 17 17 18 18 19 19 19 19 19 19 19 19 18 19 18 18 18 18 18 18 18 18 18 18 18 18 18 18 18 19 18 18 18 18 18 18 18 18 18 18 18 18 17 17 17
24 23 24 24 25 24 24 24 24 23 23 23 23 22 21 21 22 22 22 24 23 21 20 20 20 19 20 20 21 21 20 20 20 19 19 19 18 18 18 17 17 17 18 18 17 17 18 18 19 19 19 19 19 19 19 19 19 18 18 18 18 18 18 18 18 18 19 19 19 19 19 19 18 18 18 18 18 18 18 18 18 18 18 18 17 17
22 23 24 25 25 25 24 24 24 23 23 23 22 22 21 21 22 21 22 24 23 21 20 20 19 19 20 20 20 20 21 21 20 19 19 18 17 16 16 16 16 17 18 18 17 16 17 18 18 18 19 19 19 19 19 19 19 18 18 18 18 18 18 18 19 19 19 19 19 19 19 19 19 18 18 18 18 18 18 18 18 18 18 18 17 17
23 24 25 24 25 24 24 24 24 23 22 22 22 22 21 22 22 22 22 23 22 22 21 20 18 18 19 19 19 20 20 20 20 20 19 19 18 16 16 16 16 16 17 17 17 16 16 17 17 18 19 19 19 19 19 19 19 18 18 18 18 19 19 19 19 19 19 19 19 19 19 19 19 18 18 18 18 18 18 18 18 18 18 18 17 17
24 25 25 24 24 24 24 24 23 22 22 22 23 23 23 23 22 22 23 22 21 21 22 22 18 17 18 18 18 19 19 19 19 20 19 19 19 19 18 18 18 17 17 18 17 17 16 16 16 17 18 18 18 18 18 19 19 19 19 19 19 19 19 19 19 19 19 19 19 19 19 19 19 18 18 18 18 18 18 18 18 18 18 18 18 17
24 24 25 24 24 24 24 23 23 23 21 21 22 23 23 23 23 22 22 21 20 20 22 22 19 17 17 18 18 19 19 19 19 19 19 19 19 19 19 19 19 18 18 18 17 17 16 15 15 17 18 17 17 17 18 18 19 19 19 19 19 19 19 19 19 19 19 19 19 19 19 19 19 18 18 18 19 19 18 18 18 18 18 18 18 17
24 24 24 24 24 24 23 22 23 23 21 21 22 23 23 23 23 22 22 21 20 21 21 20 19 17 17 17 18 18 18 18 19 19 19 19 19 19 19 18 18 18 17 17 17 17 16 15 15 18 18 17 16 17 17 17 18 19 19 19 19 19 19 19 19 19 19 19 19 19 19 19 19 19 19 19 19 18 18 18 18 18 18 18 18 17
25 24 24 24 23 23 22 22 23 23 22 22 23 22 22 22 22 22 22 21 21 21 20 19 20 18 16 17 17 18 18 18 18 18 19 19 19 19 19 18 18 18 17 17 17 17 16 16 17 18 18 16 15 16 16 17 18 18 19 19 19 19 19 19 19 19 19 19 19 19 19 19 19 19 19 19 18 18 18 18 18 18 18 17 17 17
25 24 24 24 23 22 22 23 23 23 23 23 22 21 21 21 22 22 21 21 21 20 18 19 20 18 15 16 17 17 18 18 18 18 19 19 19 19 19 19 19 18 17 17 16 16 16 17 17 17 17 16 15 15 15 15 16 17 18 18 19 19 18 19 19 19 19 19 19 19 19 19 19 19 19 18 18 18 18 18 18 18 17 17 17 17
24 25 25 24 24 23 23 23 23 22 22 23 22 21 22 21 21 21 20 20 20 19 18 18 19 19 17 16 16 17 17 17 18 18 19 19 19 19 19 19 19 18 18 17 16 15 16 16 17 16 17 16 15 14 14 14 15 16 17 17 18 18 18 18 18 18 18 19 19 19 19 19 19 19 19 18 18 18 18 18 18 18 17 17 17 17
24 24 24 24 24 24 24 23 23 22 22 22 21 21 21 20 20 20 19 20 19 18 18 17 17 19 17 16 16 16 17 17 17 18 18 18 18 18 18 18 18 18 18 17 17 16 15 16 16 16 17 16 15 15 15 15 15 16 16 16 17 18 18 18 18 17 17 18 18 18 18 18 19 19 18 18 18 18 18 18 18 18 17 17 17 17
23 23 23 24 24 24 24 23 23 22 22 22 21 20 20 19 19 19 18 18 18 17 18 17 17 17 15 16 17 17 18 17 17 18 18 18 18 18 18 18 18 18 18 17 17 16 15 15 16 17 17 17 16 16 15 15 16 16 16 16 16 17 17 17 17 17 17 17 17 17 17 17 18 18 19 18 18 18 18 18 18 18 17 17 17 17
22 23 23 23 24 24 23 22 21 21 21 22 21 20 19 18 18 17 17 17 17 18 17 17 17 16 15 16 17 17 18 17 16 17 18 18 17 17 17 17 17 17 17 17 17 17 16 15 16 16 17 17 16 16 16 16 16 16 16 16 16 16 16 16 16 16 17 17 17 17 17 17 17 17 18 18 18 18 18 18 18 18 18 17 17 17
20 21 22 22 23 24 23 22 22 21 21 21 21 21 20 19 18 18 17 17 17 18 17 16 17 16 15 17 17 17 17 16 17 18 18 18 17 17 17 17 17 17 17 17 17 16 16 16 16 16 17 17 16 16 16 16 16 16 16 16 15 14 14 15 16 16 17 17 17 17 17 17 17 17 17 18 18 18 18 18 18 18 17 17 17 17
20 20 22 23 23 24 23 23 23 22 21 21 20 20 20 20 19 18 18 17 18 17 16 15 15 16 16 17 17 17 17 17 18 18 18 18 17 17 17 17 17 17 17 17 17 16 16 16 16 16 16 16 16 16 16 16 16 16 16 16 15 14 13 14 15 14 15 16 16 16 16 16 17 17 17 17 16 16 16 17 18 18 17 17 17 17
20 20 22 23 23 23 23 22 22 22 21 21 20 20 20 20 20 19 17 17 18 17 15 15 15 16 16 17 18 17 17 18 18 17 17 17 17 17 17 17 17 17 17 16 16 16 15 16 16 16 16 16 16 17 16 16 16 16 16 16 15 15 14 14 14 14 14 15 15 15 15 16 16 15 15 14 14 14 14 16 17 18 18 17 17 17
20 20 21 22 22 23 23 22 22 21 21 21 20 20 20 20 20 19 18 18 17 16 15 15 15 16 16 16 17 17 17 17 17 17 17 17 17 17 17 17 17 17 17 16 16 16 15 16 16 17 17 17 17 17 17 17 16 16 16 16 16 15 15 15 15 15 15 15 15 15 16 16 15 14 13 13 14 15 15 16 16 17 17 17 17 17
20 20 21 21 21 22 22 22 21 21 21 21 20 20 20 20 19 19 18 18 17 15 15 15 15 15 16 16 17 17 16 16 16 17 17 17 17 17 17 17 17 17 17 16 17 16 15 16 16 17 17 17 17 17 16 16 16 16 16 16 15 15 15 15 15 15 15 15 15 15 15 15 14 14 14 15 16 16 15 15 16 16 16 17 17 17
19 19 20 21 21 21 22 20 20 20 20 20 20 20 19 19 19 18 18 18 17 16 15 15 15 15 16 16 17 16 16 16 16 17 17 17 17 17 17 17 17 17 17 17 17 16 15 16 17 17 17 17 17 17 17 16 17 17 16 16 16 16 15 15 15 15 15 15 15 15 15 14 14 14 15 15 15 15 15 15 15 15 15 16 17 17
19 19 19 20 20 20 20 19 19 20 20 19 19 19 19 19 19 18 18 18 18 17 16 15 15 15 16 17 17 17 17 17 17 17 17 17 17 17 17 17 17 17 17 17 17 16 15 16 17 17 17 17 17 17 17 17 17 17 17 16 16 16 16 15 15 15 15 15 15 15 15 14 14 14 14 13 13 13 14 14 14 14 15 16 16 17
19 19 19 19 19 19 19 20 20 20 19 19 19 18 18 19 18 18 18 17 18 17 16 16 15 15 17 18 17 17 17 17 17 17 17 17 17 17 17 17 17 17 17 17 17 16 15 16 17 17 17 17 17 17 17 17 17 17 17 17 16 16 16 16 15 15 15 15 15 15 14 14 14 14 13 13 13 13 13 13 13 13 14 15 16 16
19 19 19 19 18 19 19 19 20 20 20 19 19 18 18 18 18 17 17 17 18 17 16 16 15 15 18 18 17 17 18 18 18 18 18 17 17 17 17 17 17 17 17 17 16 15 16 16 17 17 17 16 17 17 17 17 17 17 17 17 17 16 16 16 15 15 15 15 15 14 14 14 14 14 13 13 13 13 13 13 13 13 13 14 15 15
19 18 18 19 19 20 20 19 20 20 20 19 19 18 19 18 18 17 17 17 17 16 16 16 15 16 18 18 17 18 18 18 18 18 18 17 17 17 18 18 17 17 17 16 15 14 15 16 16 16 16 16 16 16 16 17 17 17 17 16 16 16 16 16 15 15 15 15 14 14 14 14 14 14 14 13 13 13 13 13 13 13 13 13 13 13
19 18 18 19 18 19 20 20 20 20 20 19 18 18 19 19 19 18 17 17 17 16 16 16 15 16 17 17 17 18 18 18 17 17 17 17 17 18 18 18 17 17 17 17 15 14 14 14 14 15 15 15 15 16 16 16 16 16 16 16 16 16 16 16 16 15 15 15 15 15 14 14 14 14 14 13 13 13 13 13 14 13 13 13 13 13
19 18 18 18 17 17 17 18 19 19 19 18 18 18 19 19 19 18 17 17 17 16 16 16 16 16 17 17 17 18 17 18 17 17 17 17 17 17 17 17 17 16 16 16 16 15 14 14 14 15 15 15 16 16 16 16 16 16 16 16 16 16 16 16 16 15 15 15 15 15 15 14 14 14 13 13 13 13 13 13 13 13 13 13 13 13
19 18 18 18 18 18 18 19 18 18 19 18 18 19 19 18 18 18 17 17 17 16 17 17 16 17 17 17 17 17 17 17 17 16 17 17 17 17 17 17 16 16 16 16 16 15 14 14 14 15 16 16 16 16 16 16 16 16 16 16 16 16 16 16 16 15 15 15 15 15 15 15 14 14 13 13 13 13 13 13 13 13 13 13 13 13
20 19 19 19 19 19 19 19 19 19 19 19 18 19 19 19 19 18 18 17 17 17 16 16 16 16 17 17 17 17 17 17 16 16 17 17 17 17 17 16 17 16 16 16 15 15 15 14 14 15 16 16 16 16 16 16 16 16 16 16 16 16 16 15 15 15 15 15 15 15 14 14 14 14 14 13 13 13 13 13 13 13 13 13 13 13
19 19 19 19 19 19 19 19 19 19 19 19 19 19 19 18 19 19 18 18 18 17 17 16 16 16 17 17 17 18 17 17 17 17 17 17 17 17 17 17 16 16 16 16 15 15 16 15 14 14 15 15 16 16 16 16 16 16 16 16 16 16 16 15 15 15 15 15 14 14 14 14 14 14 14 14 13 12 12 12 12 12 12 12 12 13
19 19 19 18 19 19 18 18 20 20 19 19 19 19 19 19 19 19 18 18 18 17 16 17 17 17 17 18 18 18 16 16 16 16 16 16 16 16 16 16 16 16 16 16 16 16 15 14 14 15 15 15 15 15 15 16 16 16 16 16 16 16 15 15 15 15 15 15 15 14 14 15 15 14 14 14 13 13 12 12 12 12 12 12 12 12
19 19 18 18 19 19 18 18 20 20 19 19 19 18 18 19 19 18 18 18 18 17 16 17 17 17 17 18 18 17 16 16 16 16 16 16 16 16 16 16 16 16 16 16 16 16 15 14 14 15 15 15 15 15 15 16 16 16 16 16 16 16 15 15 15 15 15 15 15 15 14 14 14 14 14 13 13 13 13 12 12 12 12 12 12 12
19 19 18 18 18 18 18 19 19 19 18 18 19 18 18 19 19 18 18 18 18 17 17 16 16 17 18 18 18 16 16 16 16 16 16 16 16 16 16 16 16 16 16 16 16 16 15 14 14 15 15 15 15 15 16 16 16 16 16 16 15 15 16 15 15 15 15 15 15 15 14 14 14 14 14 14 13 13 13 13 12 12 12 12 12 12
19 19 18 18 18 18 19 18 18 18 18 18 18 18 18 19 19 18 18 18 18 17 17 17 17 17 18 18 17 17 16 16 16 15 16 16 16 16 16 16 16 16 16 16 16 15 15 14 14 15 15 15 16 16 16 16 16 16 16 16 15 15 15 15 15 15 15 15 15 14 14 14 14 14 14 14 14 13 13 13 13 12 12 12 12 12
19 19 18 17 18 18 18 18 18 18 18 18 18 18 18 19 19 18 18 18 17 17 17 17 18 17 17 18 18 17 17 16 15 15 15 16 16 16 15 16 16 15 16 16 15 14 14 15 15 15 16 16 16 16 16 15 16 16 15 15 15 15 15 15 15 15 15 15 15 15 14 14 14 14 14 14 14 14 13 13 12 12 12 12 12 12
19 19 18 17 17 18 18 18 18 18 18 18 18 18 18 19 19 18 18 17 17 17 17 17 17 17 17 17 17 17 16 15 15 15 16 16 16 16 16 16 16 16 16 15 15 14 14 15 16 16 16 16 16 15 15 15 15 15 15 15 15 15 15 15 15 15 15 15 15 15 15 14 14 14 14 14 14 14 14 13 12 12 12 12 12 11
19 18 18 18 17 18 17 17 17 17 17 18 18 18 18 18 18 18 17 16 16 16 17 17 17 16 16 16 15 15 15 15 15 16 16 16 16 16 16 16 16 16 15 15 15 14 15 15 16 16 16 15 15 15 15 15 15 15 15 15 15 15 15 15 15 15 15 15 15 15 15 14 14 14 14 14 14 14 14 13 13 12 12 12 11 11
19 18 18 18 17 17 17 17 17 17 17 17 18 18 18 18 18 18 17 16 16 16 16 17 16 16 16 16 15 14 15 15 15 15 15 16 16 16 16 16 16 16 15 15 15 15 16 16 15 16 15 15 15 15 15 15 15 14 14 15 14 14 14 14 14 14 14 14 14 14 14 14 14 14 14 14 14 14 14 14 13 13 12 12 12 11
19 19 19 19 17 17 17 17 17 17 17 17 17 17 18 18 18 18 17 16 16 16 16 17 17 17 17 16 15 14 15 15 14 14 16 16 15 15 15 15 16 15 15 16 16 16 16 16 15 15 15 15 15 14 14 14 14 14 14 14 14 14 14 14 14 14 14 14 14 14 14 14 14 13 14 14 14 14 13 13 14 13 13 12 12 12
19 18 18 18 18 17 17 17 17 17 17 17 17 18 18 18 18 18 16 16 17 17 16 17 17 17 17 16 15 15 15 15 14 14 16 16 15 14 15 15 16 16 16 16 16 15 15 15 15 15 15 14 14 14 14 14 14 14 14 14 13 13 13 13 14 14 14 14 14 14 14 14 14 14 14 14 14 14 13 13 13 13 13 13 13 12
18 18 17 18 18 17 17 17 17 17 17 17 17 18 17 17 18 17 15 16 17 17 16 17 17 17 16 16 16 16 16 15 15 15 16 15 14 14 15 15 16 16 16 16 15 15 15 15 15 15 14 14 14 14 14 14 14 13 13 13 13 13 13 13 13 13 13 13 13 13 13 13 13 13 14 14 13 13 14 13 13 13 13 13 13 12
18 17 16 17 17 16 16 17 17 17 17 17 18 18 17 17 17 16 16 17 18 17 16 17 17 16 16 16 16 16 16 16 16 16 15 14 14 15 16 16 16 16 15 15 15 14 14 14 14 14 14 14 14 14 13 13 13 13 13 13 13 13 13 13 13 13 13 13 13 13 13 13 13 13 13 13 13 13 13 14 13 13 13 13 12 12
18 18 16 16 17 17 16 17 17 17 18 18 18 17 17 17 17 17 17 17 17 17 17 16 17 16 16 16 16 16 16 15 15 16 16 15 14 15 15 15 15 15 15 14 14 14 14 14 14 14 14 14 13 13 13 13 13 13 13 13 13 13 13 13 13 12 12 13 13 13 13 13 13 13 13 12 13 13 13 13 13 13 12 12 12 12
19 19 18 17 17 17 17 17 17 17 18 18 17 17 17 17 18 18 17 17 17 18 17 16 16 16 16 16 16 16 16 15 15 16 16 15 14 13 14 14 14 14 14 13 13 13 14 14 13 13 13 13 13 13 13 13 13 13 13 13 12 12 12 12 12 12 12 12 12 12 12 12 12 12 12 12 12 12 12 13 13 12 12 12 12 12
19 19 19 19 18 18 18 18 18 19 19 18 18 18 18 18 19 19 18 17 18 17 16 16 16 16 16 16 16 16 15 15 15 15 15 16 14 12 12 13 13 13 13 13 13 14 13 13 13 13 13 13 13 13 12 12 12 12 12 12 12 12 12 12 12 12 12 12 12 12 12 12 12 12 12 12 12 12 12 12 12 12 12 12 12 11
19 19 19 19 19 19 19 19 20 20 19 17 17 19 19 19 19 18 18 18 18 16 16 16 16 16 16 16 16 16 15 15 15 15 16 16 14 11 11 12 12 13 13 13 14 14 13 13 13 13 13 13 12 12 12 12 12 12 12 11 11 11 11 11 11 11 11 11 11 11 11 11 11 12 11 11 11 11 11 11 12 12 12 12 11 11
19 18 18 19 19 18 19 19 19 19 18 17 17 18 19 19 18 17 18 19 18 16 16 16 16 16 16 16 16 16 15 15 15 15 16 16 13 10 11 12 12 13 14 13 13 14 14 13 13 13 13 12 12 12 12 12 12 11 11 11 11 11 11 11 11 11 11 11 11 11 11 11 11 11 11 11 11 11 11 11 11 12 12 11 11 11
19 18 19 20 19 18 19 19 18 18 19 18 17 17 17 18 17 16 17 18 17 16 16 16 16 16 16 16 16 16 15 15 16 15 16 15 12 10 11 12 13 13 14 13 13 14 13 13 12 12 12 12 12 12 12 12 11 11 11 11 11 11 11 11 11 11 11 11 10 10 11 11 10 10 10 10 10 11 11 11 11 11 11 11 10 10
19 19 19 19 19 19 19 18 17 17 17 17 17 18 18 18 17 16 17 18 17 16 15 14 15 16 15 15 16 16 15 16 15 15 16 14 11 10 11 13 13 14 14 14 13 13 12 12 12 12 12 12 12 11 11 11 11 11 11 11 10 10 10 10 10 10 10 10 10 10 10 10 10 10 10 10 10 10 10 10 10 10 10 10 10 9
19 19 19 19 19 19 18 17 18 17 17 17 17 18 18 18 17 17 17 17 17 17 15 14 14 15 14 14 14 15 16 16 14 14 15 13 10 10 12 13 14 14 14 13 13 12 12 12 12 12 12 11 11 11 11 11 11 11 11 10 10 10 10 10 10 10 10 10 10 10 10 10 10 10 10 10 10 10 10 10 9 9 9 9 9 9
19 19 19 18 18 19 18 19 18 18 18 17 17 18 18 17 18 18 17 17 17 17 16 16 15 14 14 14 13 14 16 16 13 12 13 12 10 11 13 13 13 13 13 12 12 12 12 12 12 12 12 11 11 11 11 11 11 11 10 10 10 10 10 10 10 10 10 10 10 10 10 10 9 9 10 9 9 10 9 9 9 9 9 9 9 9
20 20 20 19 19 19 19 19 19 18 19 18 17 18 18 17 18 17 17 17 18 16 15 16 16 15 15 15 14 14 15 15 13 12 11 10 12 13 14 13 13 13 12 12 12 12 12 12 12 12 11 11 11 11 11 11 10 10 10 10 10 10 10 10 9 9 10 9 9 10 9 9 9 9 9 9 9 9 9 9 9 9 9 9 9 9
Height
773 784 791 790 789 788 787 785 786 786 785 790 795 798 801 803 802 793 790 784 775 793 810 804 807 810 807 803 795 790 788 792 798 799 801 802 803 805 805 808 810 810 811 809 809 810 811 813 813 815 817 818 819 820 821 822 822 822 822 823 824 826 827 827 827 828 828 828 828 828 828 828 828 828 828 828 828 828 827 827 827 826 826 826 825 825
777 792 795 787 786 785 783 784 782 783 784 787 792 796 799 802 803 796 793 790 779 796 816 808 809 816 812 809 802 795 797 803 807 806 808 808 809 809 808 810 811 812 812 810 810 811 812 814 814 814 815 816 818 819 820 821 822 822 822 822 823 824 826 827 828 828 828 828 828 828 827 827 827 828 827 827 828 828 827 827 827 826 826 825 825 825
788 795 791 782 781 781 782 783 783 786 788 790 793 796 801 801 801 799 796 794 787 800 821 816 816 824 819 813 808 803 806 810 809 809 812 811 812 813 812 812 811 810 811 811 812 814 814 815 816 815 814 812 814 816 818 820 821 822 823 824 824 825 826 827 828 828 828 828 828 828 827 827 827 827 827 827 827 827 827 827 827 826 826 825 825 825
797 793 785 779 778 780 785 785 786 790 790 794 795 798 805 800 802 807 801 797 794 802 820 821 822 829 825 819 815 812 811 810 811 812 813 813 816 821 821 819 817 814 812 813 815 816 816 817 817 817 816 812 811 813 816 819 821 822 823 825 825 826 826 826 826 827 827 827 827 827 827 826 826 826 827 827 827 827 827 827 827 826 826 825 825 825
795 788 780 779 781 783 788 789 789 794 796 797 796 798 802 799 801 804 798 799 800 802 810 816 829 838 833 830 827 820 817 816 815 814 816 817 819 824 826 825 824 820 816 817 819 820 819 819 818 818 818 816 814 814 815 817 820 821 821 821 822 822 822 823 823 823 824 825 826 826 826 826 826 826 826 826 826 826 826 826 826 826 826 825 825 825
792 784 779 782 785 786 789 792 792 796 800 799 795 792 794 795 798 798 796 804 814 815 805 807 836 854 841 836 836 829 825 825 823 821 821 821 819 821 823 822 822 820 818 819 820 820 820 820 820 818 818 819 818 818 816 816 816 817 817 817 816 816 817 818 818 819 820 821 822 823 823 824 824 824 824 824 825 825 825 825 825 825 825 825 825 825
790 785 782 785 788 788 793 795 791 793 802 804 796 789 790 792 796 799 797 806 820 822 806 801 831 857 850 840 839 833 831 830 828 826 825 824 822 821 822 821 821 820 820 820 820 820 819 821 821 817 817 819 819 818 817 817 816 814 815 815 814 814 813 814 816 817 818 818 819 820 820 821 821 822 822 823 823 824 824 824 824 824 824 824 824 824
790 789 788 788 790 793 799 800 792 790 801 806 794 788 792 793 796 799 797 805 814 813 811 810 821 847 856 848 841 835 834 834 831 830 829 827 827 827 827 827 825 824 824 822 822 821 820 820 819 816 816 818 819 818 818 818 817 814 814 814 815 814 813 813 813 815 817 818 818 818 819 820 820 821 821 822 822 823 823 824 824 823 823 823 824 824
789 792 793 791 795 800 801 799 791 788 798 800 790 790 794 793 796 797 798 806 807 809 824 824 819 844 862 851 842 839 836 839 838 835 834 831 831 830 830 830 829 828 826 825 824 823 822 821 820 818 817 818 819 818 819 820 818 816 814 814 815 815 814 813 812 812 813 814 816 817 817 817 818 819 820 821 822 822 823 823 823 823 823 823 823 823
790 791 790 791 798 801 798 795 790 789 795 792 789 793 793 795 798 797 802 805 805 819 838 832 821 844 868 858 847 845 843 844 842 838 836 834 832 832 830 830 830 829 828 827 826 825 824 823 821 821 819 819 819 818 820 822 820 817 815 815 816 816 815 814 813 811 810 810 812 813 814 814 815 816 817 819 819 820 821 822 822 822 822 822 822 822
790 786 786 789 794 796 793 792 790 791 791 787 791 795 794 801 802 802 809 807 814 835 842 836 825 832 858 863 853 850 849 846 843 839 837 834 833 833 833 832 831 830 830 828 828 826 825 824 823 822 820 819 819 819 821 821 820 817 815 815 815 816 816 815 814 813 812 811 811 812 813 813 814 815 816 816 817 818 819 819 820 821 821 821 821 821
794 791 791 790 789 789 789 792 791 790 790 789 797 801 803 812 810 812 818 816 833 847 838 837 831 828 852 863 853 849 846 843 842 840 839 837 836 836 835 834 833 832 831 830 829 828 826 825 823 822 821 820 819 819 819 819 818 816 815 815 814 814 815 814 815 815 814 813 813 814 814 815 815 815 815 814 815 816 816 817 818 818 819 820 820 820
801 798 796 792 788 787 792 797 796 793 793 795 801 807 817 829 829 834 839 836 845 847 837 837 834 839 858 857 848 847 841 840 842 840 838 838 838 837 836 836 834 833 832 831 830 829 827 826 824 822 821 820 820 819 818 817 817 816 815 814 813 813 813 814 814 815 815 814 813 814 815 815 815 814 814 813 813 813 813 814 815 816 817 817 818 818
811 804 798 797 795 789 793 803 806 805 803 802 805 812 825 838 844 851 854 851 849 843 839 837 835 851 864 851 844 844 840 841 841 838 838 837 837 838 836 835 834 833 833 832 831 830 828 826 825 824 823 821 820 819 818 817 816 815 814 813 813 812 813 813 813 813 813 812 812 813 813 813 813 813 813 812 811 811 811 812 813 814 814 815 816 816
826 821 807 803 801 794 794 800 804 806 807 807 806 810 821 830 839 847 849 849 849 843 842 841 844 861 865 850 843 841 840 841 839 837 836 836 837 837 835 835 835 834 834 832 832 831 829 828 826 825 824 822 821 820 819 818 817 816 815 814 813 813 814 813 812 811 810 809 809 810 810 810 811 811 811 810 810 810 810 811 812 812 813 814 815 816
829 827 809 800 799 796 797 797 794 800 810 810 807 812 821 822 827 837 843 844 843 847 853 856 858 860 855 847 841 839 841 840 837 836 836 836 837 836 836 837 835 835 834 833 832 831 830 829 827 826 825 824 823 821 820 819 817 816 815 815 814 813 814 813 811 811 810 808 808 809 809 809 808 808 808 808 809 810 810 811 811 812 812 814 814 815
828 823 808 801 801 798 801 800 795 802 812 812 814 820 820 814 818 832 843 843 842 854 865 866 864 858 852 850 842 840 844 841 839 839 838 839 838 837 839 838 836 836 835 834 833 831 831 829 828 827 825 825 823 822 821 819 818 817 815 814 813 812 811 811 811 812 812 810 810 810 809 807 806 806 807 807 808 810 811 811 811 810 810 811 813 814
825 826 814 807 808 802 799 800 799 801 807 814 823 821 813 812 816 826 840 845 849 864 871 866 865 863 861 858 848 844 848 846 844 843 841 841 840 840 840 838 837 837 835 835 833 831 831 829 828 827 826 825 824 822 821 820 819 817 816 815 813 812 811 811 811 812 811 810 810 810 807 805 805 806 807 808 809 810 810 809 807 807 808 808 810 811
822 829 821 811 813 808 799 803 810 809 806 812 818 813 814 825 829 831 841 847 854 868 872 867 866 865 863 859 852 850 851 849 848 845 842 842 841 841 841 838 838 837 836 835 833 832 832 830 829 828 826 826 824 823 822 821 820 818 817 815 813 813 812 811 811 810 809 808 807 806 804 804 804 805 806 806 806 807 807 806 805 805 805 806 806 807
821 830 829 816 812 810 807 814 825 824 815 812 814 814 819 829 834 837 841 844 851 862 870 870 869 867 861 854 851 852 850 848 847 845 843 842 842 841 840 839 838 837 836 835 834 833 832 831 830 828 827 826 824 824 822 821 820 819 818 817 815 814 812 811 810 809 808 807 806 805 803 803 804 803 803 802 802 803 803 804 804 802 803 803 802 803
821 829 834 825 816 819 825 828 829 829 825 823 826 829 829 829 831 835 838 841 845 855 865 869 872 868 855 846 848 849 847 845 844 844 843 842 841 841 840 839 838 837 836 835 834 833 832 831 831 829 828 826 825 824 822 821 820 818 818 817 816 815 813 812 810 809 808 808 807 805 803 802 802 801 800 800 800 800 800 800 801 801 801 800 800 800
824 830 835 834 831 833 834 827 821 823 825 828 832 835 835 833 835 842 848 845 843 850 858 861 869 866 849 841 845 845 844 843 842 842 842 841 840 840 839 839 838 837 836 835 834 833 833 832 831 830 828 827 825 824 822 821 820 818 817 816 816 815 814 813 811 809 809 808 808 806 803 802 800 799 799 799 799 798 798 799 800 800 799 797 798 799
823 830 835 838 837 835 832 825 821 821 821 825 830 832 833 835 839 848 854 849 845 850 853 854 865 862 844 839 843 842 841 841 840 841 840 840 840 839 838 838 838 838 836 836 835 834 834 833 832 831 829 828 826 824 822 821 819 818 817 816 815 814 813 813 811 810 809 808 807 805 803 802 800 799 798 798 798 798 797 797 798 799 798 797 797 798
823 833 838 840 837 830 825 823 821 820 821 828 833 832 833 836 838 842 847 846 848 854 853 855 865 859 842 839 842 841 840 839 840 840 840 841 841 839 838 837 837 837 837 836 836 835 835 834 833 832 830 829 827 825 823 821 820 819 817 816 815 814 813 812 811 809 808 806 805 803 802 800 799 798 797 797 797 796 796 795 795 797 798 797 797 799
828 839 840 844 848 842 836 832 829 826 828 834 837 835 833 834 834 838 842 844 850 856 854 857 866 858 843 841 841 839 840 839 840 840 840 841 841 839 838 837 837 838 837 837 837 836 835 835 834 833 832 830 828 827 825 823 821 820 818 817 816 815 814 812 810 809 806 805 803 802 800 799 797 797 796 796 796 795 794 793 793 794 796 796 796 798
829 839 839 846 857 859 856 851 844 838 837 838 838 836 835 833 834 838 845 849 854 856 853 856 861 853 843 842 842 840 840 840 841 842 841 841 840 839 839 838 838 838 837 837 837 836 836 835 834 833 832 831 829 827 826 824 822 821 819 818 817 815 814 812 810 808 806 804 802 800 799 797 796 795 794 794 794 794 794 793 793 793 794 795 795 797
830 837 838 842 849 851 849 844 840 839 840 841 841 837 836 836 835 839 847 852 853 853 853 852 852 850 846 844 843 842 842 842 842 843 842 841 840 839 839 839 839 838 838 838 837 837 836 835 834 833 832 831 829 828 827 825 823 822 820 818 816 815 814 812 810 808 806 804 802 800 798 797 795 794 793 792 792 792 793 793 793 793 793 793 794 795
831 837 837 838 839 839 838 835 834 835 837 840 840 838 837 836 835 839 845 847 847 853 856 851 848 850 849 844 843 842 842 843 843 842 841 839 839 839 839 839 838 838 838 838 837 837 836 835 834 833 832 831 830 828 827 826 824 822 820 818 816 815 813 812 810 808 806 805 802 800 798 796 795 793 792 791 790 790 790 791 792 792 792 793 793 793
833 839 838 837 836 835 835 834 832 832 834 835 836 836 837 837 836 838 842 842 841 848 853 849 847 850 847 843 841 839 839 840 840 839 838 838 838 838 838 838 838 838 838 837 837 836 836 835 834 833 833 831 830 829 827 826 824 822 821 819 817 815 813 812 810 808 807 805 802 800 798 796 794 793 791 791 790 789 789 790 790 791 791 792 792 793
833 839 838 837 835 834 835 834 830 830 835 835 834 834 835 836 836 836 839 839 838 843 847 844 845 846 842 839 837 836 838 839 839 839 838 838 839 838 837 838 838 838 837 837 836 836 835 834 833 832 832 831 829 828 827 826 824 823 821 819 817 815 813 812 811 809 807 805 803 801 799 797 794 793 791 790 789 788 788 788 788 788 789 789 790 791
832 838 839 837 837 838 838 835 830 831 835 835 834 836 836 835 836 837 839 838 838 844 846 843 844 845 839 835 834 836 839 839 839 840 839 838 839 838 838 839 838 838 837 836 835 835 834 834 833 832 831 830 829 828 827 826 824 823 821 819 818 816 813 812 811 810 807 805 803 801 799 797 795 793 791 789 788 787 787 787 787 786 786 786 787 788
831 838 839 839 843 843 838 836 835 835 838 839 837 838 837 835 836 837 838 837 837 841 844 846 847 844 837 833 834 837 838 838 838 839 839 839 839 837 837 838 837 837 836 835 834 834 834 833 833 832 831 830 829 828 826 825 824 823 821 819 818 816 814 813 812 810 808 805 803 801 799 798 796 794 792 790 788 787 786 786 785 785 785 785 785 785
832 836 839 843 847 844 838 839 839 839 844 846 840 836 836 835 835 836 836 836 836 837 841 843 841 837 834 833 834 837 838 838 839 839 839 839 838 838 838 837 837 837 835 834 834 834 834 834 832 831 830 829 829 827 826 825 823 822 821 819 818 816 814 813 812 810 808 806 804 801 799 798 796 794 792 790 789 787 786 785 784 784 784 783 783 783
833 834 838 843 846 845 840 838 840 844 849 846 836 832 833 832 833 836 836 835 836 836 836 836 834 833 834 833 833 835 836 837 838 838 838 837 838 838 838 837 837 836 835 835 835 834 834 833 832 831 830 829 828 827 826 825 823 822 821 819 818 816 814 813 811 810 808 806 804 802 799 798 796 794 793 791 789 787 786 784 783 783 782 782 781 781
834 834 838 841 844 845 841 840 846 852 848 838 832 831 831 830 831 834 836 837 837 836 835 833 833 832 833 834 833 833 835 837 838 837 836 836 836 836 836 836 835 835 834 834 834 833 833 832 831 830 829 829 828 827 826 825 823 822 821 819 818 816 815 813 811 809 808 806 804 802 799 797 796 794 793 791 789 788 786 784 782 781 781 780 780 779
832 835 837 840 844 845 846 849 853 852 842 835 834 833 831 832 834 836 840 841 838 836 834 833 834 835 835 836 835 834 836 837 837 837 836 836 835 835 834 834 833 833 833 833 833 832 832 831 830 830 829 829 828 827 826 825 823 822 821 819 818 816 814 813 811 809 807 805 803 802 799 797 796 794 792 791 789 788 786 784 782 781 780 779 778 778
828 833 835 839 844 846 849 850 849 847 843 839 837 833 830 833 833 835 842 844 838 835 835 833 835 836 835 836 837 837 837 838 839 839 837 835 835 834 833 832 832 832 832 831 832 832 831 830 830 829 829 828 827 827 826 824 823 822 820 819 817 816 814 812 810 809 807 805 803 801 799 797 796 794 792 790 789 787 786 784 782 780 779 778 777 777
825 830 832 837 843 847 849 850 849 850 848 841 836 832 829 830 829 831 840 844 837 834 835 833 833 834 833 834 838 839 838 840 844 842 836 834 834 832 832 832 831 831 831 830 831 830 830 829 829 829 829 828 827 826 825 823 822 821 819 818 816 815 813 811 809 808 806 804 802 800 799 797 796 794 792 790 788 787 785 783 782 780 778 777 776 775
828 832 833 836 841 845 847 850 853 851 844 838 835 830 828 829 828 831 842 846 837 832 833 833 832 833 833 833 836 837 838 841 844 840 834 832 832 831 831 831 830 830 830 829 829 829 829 829 828 828 828 827 826 825 824 823 821 819 818 817 815 814 812 811 809 807 805 804 801 799 798 797 795 794 792 790 788 786 784 782 781 780 778 777 775 774
832 835 837 838 841 845 847 849 849 844 838 834 831 828 828 828 828 837 850 847 833 829 832 831 830 832 833 833 834 834 836 838 839 836 832 831 831 830 830 829 829 829 829 828 829 829 828 828 828 828 827 826 826 825 823 822 821 819 818 816 814 813 812 810 808 806 805 803 801 799 797 796 795 793 791 789 787 785 782 781 780 779 777 776 775 773
835 837 842 841 841 845 848 848 845 839 833 830 827 826 826 828 834 844 847 836 827 828 830 828 829 830 832 832 832 832 833 833 832 831 830 830 830 829 828 828 828 828 828 829 829 829 828 828 828 827 826 826 825 824 823 822 821 819 818 816 814 813 811 810 808 806 804 802 800 799 797 795 794 792 790 788 786 784 781 779 778 777 776 775 774 773
834 837 842 842 840 843 844 842 843 838 828 823 825 825 826 833 840 839 831 825 825 827 827 827 828 829 829 829 830 830 830 830 829 829 829 829 828 828 827 827 827 828 829 829 829 829 828 828 827 827 826 825 825 824 823 821 820 819 817 815 814 812 811 809 807 805 804 802 800 798 796 794 793 791 789 787 785 783 781 778 777 776 776 775 774 772
826 831 836 837 836 839 841 841 843 838 825 819 824 828 828 831 830 824 822 824 823 822 825 827 827 826 827 828 828 828 828 828 829 828 828 827 827 827 827 827 827 828 829 829 829 828 828 827 827 826 825 825 824 823 822 821 820 818 817 815 813 811 810 808 807 805 803 801 800 798 796 794 792 790 788 786 784 783 781 778 777 776 775 774 773 772
821 824 828 828 827 832 837 836 831 823 817 816 821 822 821 820 816 815 819 822 821 821 824 825 824 825 825 825 826 827 827 827 828 827 827 826 826 826 827 827 828 828 828 828 828 828 827 827 826 826 825 824 823 822 822 821 819 818 816 815 813 811 809 808 806 805 803 801 799 797 795 793 791 789 787 785 783 782 780 778 776 775 774 773 773 772
818 818 820 820 820 822 824 820 815 811 812 814 815 813 812 812 812 815 816 817 819 821 822 822 823 824 823 823 825 826 826 826 826 826 825 825 825 827 828 828 828 828 828 828 827 827 827 826 825 825 824 823 823 822 821 820 819 818 816 814 813 811 809 807 806 804 802 800 798 796 794 792 790 788 786 784 783 781 780 778 776 774 773 773 772 772
814 814 815 815 816 818 816 812 811 811 811 812 811 810 811 811 813 814 814 815 817 819 820 821 822 822 823 823 824 824 825 825 825 824 824 825 826 827 828 828 828 827 827 827 827 826 825 825 824 824 823 823 823 822 821 820 819 817 816 814 813 811 809 807 805 803 801 799 797 795 793 791 789 788 786 784 782 780 779 777 775 774 773 773 772 772
813 812 813 814 817 819 817 812 811 811 810 810 811 812 812 812 813 814 814 814 816 818 819 820 820 820 822 822 822 823 824 824 823 823 823 824 826 827 827 827 827 826 826 826 825 825 824 824 823 823 822 822 822 821 820 819 818 816 815 814 812 811 809 807 805 802 800 799 797 795 793 791 789 787 786 784 782 780 778 777 775 774 774 773 772 771
813 811 813 815 817 818 817 814 812 812 811 810 811 811 811 812 813 813 813 814 816 817 818 818 818 819 820 820 821 822 822 822 822 822 822 824 825 826 826 825 825 825 825 824 824 824 823 823 822 822 822 821 821 820 819 818 817 816 815 813 812 810 808 806 804 802 800 798 796 794 792 791 789 787 785 783 782 780 778 776 775 774 773 772 771 770
812 812 814 815 815 816 817 815 813 813 813 812 811 810 810 811 812 812 813 814 815 816 817 817 817 817 818 818 819 819 819 820 820 820 821 823 824 824 824 824 824 824 823 823 823 823 822 822 821 821 821 821 820 820 819 818 817 815 814 813 811 810 808 806 804 802 800 798 796 794 792 791 788 786 784 782 781 780 778 777 775 774 772 771 771 769
812 812 814 815 817 817 815 811 810 812 814 814 811 809 810 810 810 811 813 814 814 815 816 816 816 816 816 816 816 817 818 818 817 818 820 821 822 822 822 822 823 823 822 823 823 822 821 821 820 820 820 820 819 818 818 817 816 815 813 812 811 809 808 806 804 802 800 798 796 794 792 790 788 786 784 782 780 779 777 776 775 773 772 770 769 768
807 807 808 811 814 812 807 805 806 808 810 810 808 808 808 809 809 811 812 812 813 813 814 814 815 816 816 815 815 816 816 816 816 817 819 820 821 821 821 821 822 822 822 822 822 821 821 820 820 819 819 818 818 817 816 816 815 814 813 811 810 809 808 806 804 802 800 798 796 794 792 790 788 786 784 782 780 778 776 774 772 771 770 769 767 766
Wind_Speed
3 4 2 3 3 2 6 6 6 5 6 6 4 4 5 6 4 6 10 11 16 17 11 17 19 15 15 15 15 15 17 17 12 12 9 8 9 8 10 9 8 8 5 11 18 19 19 18 18 18 17 16 14 12 12 12 12 13 14 14 13 12 11 13 13 12 13 14 13 13 13 12 12 11 11 10 9 8 7 7 7 6 5 5 5 6
5 6 2 1 3 6 6 5 6 7 8 6 4 4 5 5 3 4 10 11 14 15 9 16 20 15 14 13 14 16 18 15 11 11 10 9 9 7 10 10 8 6 4 9 13 15 17 17 19 21 20 18 15 13 13 13 13 14 14 14 14 13 12 12 12 12 13 13 13 13 13 13 13 12 11 10 10 8 7 6 6 5 4 5 5 6
6 3 3 4 6 8 8 8 9 8 7 6 4 4 4 3 1 3 8 10 11 12 8 13 17 13 12 13 14 15 14 11 10 11 9 9 9 7 7 7 8 8 6 6 6 8 12 12 15 18 21 21 18 16 15 15 15 14 13 12 12 12 12 12 11 10 10 11 11 11 12 13 13 13 12 11 10 10 9 7 6 5 5 5 5 6
4 2 3 9 9 10 9 8 8 7 5 4 4 4 1 2 3 1 3 5 8 11 8 9 13 9 9 11 13 13 12 11 11 11 10 9 10 8 6 5 4 5 6 5 4 5 5 7 8 11 16 20 21 19 16 13 14 14 12 11 10 9 11 11 9 8 9 10 10 10 11 12 12 13 13 12 10 10 9 8 9 7 7 8 7 7
4 1 3 10 9 8 7 6 7 6 4 4 2 4 1 1 3 2 0 4 6 9 11 7 9 7 7 9 10 9 10 12 11 12 12 9 9 8 5 3 2 3 4 5 5 4 2 4 3 6 12 15 17 17 15 13 13 14 14 14 12 10 12 12 9 10 11 11 11 10 11 12 12 13 13 12 10 10 10 9 10 9 7 9 10 9
4 2 2 8 7 7 7 4 4 4 3 5 3 3 2 2 2 1 4 6 4 2 3 3 6 4 6 7 7 5 8 11 9 11 11 8 8 7 5 4 3 4 5 5 5 3 2 7 5 4 8 8 7 8 10 12 14 16 16 16 15 15 18 16 12 14 14 12 12 12 13 15 15 15 15 13 11 10 10 9 10 10 7 8 11 11
3 4 4 7 6 7 7 4 4 3 5 3 4 2 2 5 5 2 5 6 2 0 3 1 7 2 3 5 5 4 8 10 8 9 9 7 7 7 6 6 6 6 5 5 5 3 5 8 6 10 9 5 4 4 5 8 12 16 16 17 17 18 21 18 13 14 13 12 13 14 16 17 16 17 16 14 12 10 10 10 11 10 8 8 11 11
2 6 7 7 7 7 6 4 6 3 5 1 5 1 5 6 6 3 4 4 3 2 4 5 7 5 1 4 6 5 8 10 9 10 9 7 7 6 5 5 5 5 5 5 5 3 2 8 12 15 12 8 5 4 4 7 11 15 16 18 18 19 22 19 14 14 13 12 14 14 15 15 15 15 14 13 12 10 11 12 11 10 11 10 11 10
1 5 5 7 8 6 3 3 5 3 5 2 5 3 6 5 5 4 5 3 3 3 4 4 5 6 2 3 6 5 7 9 8 7 7 7 7 6 5 4 4 5 5 4 4 3 2 2 6 9 9 7 6 6 6 8 9 11 15 18 19 20 21 19 17 17 16 16 16 15 15 15 14 14 13 13 13 13 14 14 14 13 12 12 11 10
2 3 3 5 6 2 1 2 4 4 3 2 2 3 5 5 5 4 5 3 3 6 3 6 2 5 1 4 5 4 6 6 5 5 5 6 6 6 6 5 5 5 4 4 4 4 4 4 3 4 8 7 5 6 6 9 10 9 11 15 18 20 19 17 17 18 20 20 19 18 19 18 17 16 15 15 16 17 17 17 17 16 15 13 12 11
2 1 2 4 2 1 1 2 4 4 2 1 3 5 6 6 5 4 3 3 4 4 3 5 3 6 2 2 3 1 2 2 2 3 4 5 7 7 6 6 6 5 4 4 4 4 5 6 7 7 8 8 3 4 3 6 9 9 9 12 18 19 17 16 15 14 17 19 18 19 20 20 19 17 18 19 19 21 21 20 20 18 16 15 14 12
4 4 4 1 0 2 4 5 5 6 5 5 5 5 5 4 5 5 5 5 5 1 3 3 5 7 4 2 3 3 3 3 2 3 4 6 7 7 7 7 7 7 5 4 4 4 4 5 8 10 11 11 7 4 4 5 7 8 8 10 14 18 17 16 15 13 11 11 12 13 13 16 19 19 19 21 22 23 23 23 21 20 19 17 16 15
3 2 1 1 1 3 5 4 5 7 7 6 5 5 5 4 4 4 4 3 2 1 3 4 4 6 2 3 3 5 5 4 4 4 4 6 7 7 7 7 7 7 6 5 5 4 5 6 8 10 12 13 11 8 7 7 7 8 9 9 11 15 15 14 14 14 12 10 10 10 9 12 16 19 20 22 25 26 25 25 23 22 22 21 20 19
3 4 5 4 4 2 5 5 4 4 6 5 3 4 4 3 3 2 2 2 1 2 3 5 3 3 3 3 3 5 5 5 6 5 4 7 7 6 6 7 7 7 6 5 5 5 6 9 10 9 11 13 12 11 10 10 9 8 10 11 12 13 13 13 12 13 14 14 14 14 14 14 14 16 19 22 26 27 26 25 24 24 25 24 24 22
2 3 5 5 4 3 5 5 2 3 4 4 1 5 4 2 3 1 1 2 1 2 4 6 3 1 2 3 4 5 5 6 5 2 4 7 6 5 6 7 7 7 6 5 5 6 9 14 14 11 12 14 12 11 11 11 11 11 10 10 12 13 13 13 13 13 15 16 17 17 18 19 17 16 18 21 24 26 27 26 24 24 25 24 24 23
2 2 5 5 4 3 6 5 2 5 4 4 1 5 2 1 4 2 2 4 3 1 3 4 2 2 2 3 7 5 5 6 3 5 7 7 6 6 6 6 6 5 5 5 5 6 9 15 16 14 14 15 14 13 13 11 10 11 11 11 11 9 9 10 12 14 16 16 18 18 18 19 19 19 21 21 18 16 18 22 24 23 24 24 23 22
2 2 6 6 6 6 6 5 7 5 2 2 3 2 3 2 5 4 1 1 3 4 2 2 1 3 2 2 6 4 4 5 4 7 7 6 6 7 6 5 5 5 5 5 5 5 8 12 14 15 14 15 16 15 14 13 10 9 9 11 11 9 8 7 9 14 17 18 20 22 22 22 23 23 21 16 15 14 11 15 22 24 25 25 23 22
2 1 6 5 6 5 3 7 12 9 3 4 3 3 3 2 4 4 2 3 4 3 1 1 1 2 2 1 3 4 5 4 5 6 6 6 6 6 5 5 5 5 5 5 5 6 9 11 12 14 13 13 14 14 14 14 12 10 9 9 10 10 9 8 8 11 12 14 17 20 24 25 23 21 19 17 18 19 17 19 23 24 25 26 24 24
3 2 5 4 4 5 5 7 9 9 6 5 1 2 2 3 3 3 2 1 2 2 0 1 0 1 1 1 1 3 4 3 4 5 5 6 5 5 5 5 5 5 5 4 5 5 8 10 11 12 13 12 13 14 13 13 13 13 12 12 10 10 10 9 10 11 12 14 15 16 18 20 20 20 22 24 24 24 23 22 20 21 26 28 26 26
2 4 2 6 5 4 5 6 4 5 6 5 3 3 3 3 2 1 1 1 3 3 2 1 1 1 1 2 1 3 3 4 4 4 5 4 4 3 3 3 4 4 4 4 4 4 7 9 10 12 13 12 13 15 14 13 14 14 14 14 12 11 11 11 12 12 13 16 17 17 18 17 17 19 23 26 27 26 24 21 17 18 25 30 30 29
2 4 1 6 7 4 3 3 2 1 3 5 5 5 4 2 1 2 1 1 2 3 2 2 2 2 3 2 2 5 4 4 5 4 3 2 3 3 2 2 2 1 2 3 4 4 7 9 11 13 15 14 13 15 15 14 14 15 15 15 13 12 11 11 12 12 12 14 16 18 19 19 19 18 19 21 22 23 21 21 20 18 22 30 32 30
2 2 2 2 4 5 3 2 2 5 4 4 3 2 2 2 3 3 2 3 1 3 3 3 3 3 3 1 2 4 5 5 5 5 4 2 3 2 3 3 2 1 2 3 3 5 7 9 11 14 17 17 15 16 18 17 15 14 15 16 15 14 12 11 11 11 11 12 13 15 17 19 19 18 19 19 19 17 15 17 18 17 19 27 29 28
2 3 4 2 0 5 5 2 5 6 6 6 3 2 3 3 4 4 1 2 2 3 1 2 2 3 4 2 2 3 5 5 5 5 5 2 2 2 2 4 4 4 4 4 4 6 8 9 11 15 18 20 20 19 21 21 18 16 16 16 16 15 15 13 11 10 9 10 11 13 15 16 17 18 18 17 18 17 14 14 15 14 17 21 24 26
2 3 4 2 3 2 1 3 4 5 6 6 3 2 3 2 2 4 4 2 1 3 1 2 1 3 4 1 4 4 4 4 4 5 5 3 2 3 4 4 4 4 4 4 5 7 10 10 12 15 17 19 21 21 22 23 19 18 19 17 15 16 16 16 13 11 10 10 11 12 13 15 16 17 16 15 15 15 14 15 16 14 14 16 21 23
2 1 3 4 3 5 6 7 6 6 5 3 2 3 3 3 4 2 1 3 3 2 2 3 1 4 4 1 5 5 4 4 4 4 4 4 3 2 3 4 4 5 4 4 5 6 8 10 12 14 16 18 20 20 21 21 19 20 20 18 16 16 16 16 14 13 14 14 13 13 13 15 16 16 16 14 13 13 13 13 15 14 12 13 16 18
2 1 3 4 3 1 1 3 3 3 3 2 3 4 3 4 6 3 2 4 2 1 3 4 3 5 5 2 6 5 4 4 1 1 3 3 3 1 3 4 4 4 4 4 4 4 6 8 11 13 15 17 18 19 19 18 18 20 21 19 18 15 15 17 15 14 15 15 14 15 15 16 16 16 15 14 13 12 11 11 13 15 15 14 14 16
3 2 2 5 5 5 5 5 5 2 3 1 3 3 2 1 5 5 4 3 1 1 2 2 5 4 4 2 6 4 3 3 2 3 4 3 2 2 2 3 3 3 3 3 4 4 5 6 8 11 14 16 17 18 18 17 17 19 21 21 19 14 14 17 16 15 15 15 15 17 17 17 18 18 17 15 13 11 10 9 11 13 15 16 15 16
4 3 2 2 2 5 6 6 4 3 4 2 2 2 3 1 5 6 3 3 3 4 1 4 3 5 4 3 5 4 3 4 4 5 5 4 3 2 2 3 3 4 3 4 4 4 3 4 6 9 11 14 15 16 17 17 16 17 20 21 18 14 14 16 16 16 16 15 16 18 18 18 18 18 17 17 16 14 11 9 9 10 11 12 14 15
5 1 2 2 4 5 4 6 5 4 3 3 3 2 3 1 3 4 3 5 5 5 4 5 3 6 5 4 5 6 5 7 7 6 5 4 3 2 3 3 3 4 4 4 3 2 2 3 6 8 11 14 15 15 16 16 16 18 20 20 18 16 16 15 15 17 17 16 17 18 17 18 18 17 16 16 16 16 15 12 10 10 10 11 12 12
5 1 3 1 4 7 4 5 6 5 3 3 3 4 4 5 5 5 3 4 5 5 6 5 7 6 5 6 6 5 5 6 5 4 4 4 3 2 3 4 3 3 2 2 1 1 2 4 6 9 12 15 16 16 16 16 17 19 21 20 19 21 19 14 13 16 17 16 17 17 16 18 19 18 17 16 16 16 16 15 13 12 12 12 12 12
4 1 3 3 4 7 5 2 4 5 4 3 5 4 2 4 3 3 2 2 3 3 3 6 7 4 5 5 4 4 6 6 5 5 4 5 4 4 5 5 3 3 2 2 1 1 2 4 6 9 12 14 17 17 16 15 17 18 19 18 19 22 21 15 12 14 18 18 18 17 17 18 19 20 18 16 14 15 15 15 15 14 13 13 14 15
3 1 2 5 5 4 4 3 3 3 5 2 5 6 1 3 3 1 2 3 2 3 4 5 4 4 6 4 1 5 7 7 6 6 5 4 4 5 6 5 5 5 4 3 2 1 2 3 5 8 11 14 17 17 14 14 16 17 16 16 16 18 19 17 14 15 20 21 19 18 18 17 19 20 19 17 15 14 14 14 14 15 15 15 15 16
3 3 1 3 3 3 5 4 3 4 7 2 4 3 3 3 2 2 3 3 2 4 6 4 5 5 5 3 2 4 5 6 6 5 4 2 3 4 4 4 4 5 5 4 3 2 2 3 5 8 11 14 17 17 14 14 17 17 14 15 14 14 16 17 16 17 20 22 20 19 18 16 16 19 19 18 17 15 15 15 14 14 15 16 15 16
2 4 2 2 2 3 7 5 3 5 3 3 6 4 5 5 4 3 3 5 4 1 3 3 4 4 3 3 4 5 5 5 5 4 4 4 4 3 1 3 3 4 5 4 3 2 1 3 6 10 12 14 16 17 15 16 19 17 16 16 14 13 15 17 16 16 18 20 20 22 21 15 13 16 17 17 18 17 17 16 16 15 15 15 15 16
2 3 2 1 2 2 4 5 6 2 4 6 5 3 4 6 7 5 3 5 5 3 2 5 4 4 3 2 3 5 5 5 4 3 4 5 4 4 1 3 3 3 4 4 4 3 1 2 5 9 13 14 16 17 16 18 19 17 18 17 13 13 16 17 15 15 17 18 20 23 23 16 12 14 16 17 18 18 17 17 16 15 14 14 15 16
4 3 1 1 1 0 3 4 1 4 6 5 6 4 1 4 5 5 5 6 6 3 4 7 3 2 3 4 2 4 6 5 3 2 1 3 3 3 2 3 4 3 3 5 5 3 1 3 5 8 12 13 14 16 16 17 17 16 18 16 12 14 18 17 14 13 15 17 19 22 23 17 13 14 17 19 19 18 18 17 16 14 12 12 13 14
6 4 2 2 0 1 1 2 3 3 4 5 4 2 2 2 2 4 3 4 7 3 3 7 4 2 4 5 4 5 5 5 4 3 4 5 5 6 6 4 5 4 3 2 4 2 3 6 7 9 11 11 13 15 16 17 16 15 16 15 12 14 18 18 14 12 14 16 18 20 21 17 13 14 18 21 22 21 20 17 16 14 11 11 12 13
5 3 3 2 1 2 3 2 3 2 3 5 5 4 3 5 6 6 5 2 6 4 2 6 6 5 4 5 5 5 4 5 2 3 6 5 5 5 5 4 4 1 2 4 3 1 7 9 10 10 11 12 14 16 18 20 18 16 15 15 13 15 17 18 16 12 12 16 18 18 18 16 14 15 19 22 23 24 23 19 15 14 13 12 12 12
5 3 4 4 1 1 4 1 1 2 4 6 6 6 4 5 6 6 5 3 6 5 3 5 6 6 5 5 5 5 4 2 3 5 5 5 6 4 3 3 3 3 4 3 1 4 8 9 10 12 13 15 17 19 22 22 20 18 17 16 17 18 19 19 18 15 14 17 18 16 15 15 17 18 20 22 23 25 24 20 15 13 13 13 14 13
4 3 3 2 1 2 4 2 3 3 4 6 6 6 5 4 7 8 2 5 6 5 4 6 6 6 6 6 4 4 4 4 5 5 6 6 5 3 2 1 0 4 3 1 4 7 9 9 11 13 14 17 19 20 20 20 18 18 18 18 19 19 18 19 19 16 14 15 16 15 15 16 18 18 19 22 23 24 23 19 16 14 13 13 14 15
1 1 1 2 3 3 4 3 3 3 5 6 6 6 5 5 7 4 4 6 4 4 4 5 6 6 6 6 4 3 3 5 5 4 4 2 1 2 3 4 3 3 0 5 7 9 11 12 14 15 16 18 19 18 18 17 16 17 18 19 18 17 17 19 18 14 13 15 16 16 16 16 17 18 19 21 23 23 21 18 17 15 14 13 14 15
2 1 0 2 3 3 3 3 1 4 5 6 5 3 4 4 1 4 6 5 4 5 5 5 6 6 6 6 5 4 4 5 4 2 1 1 2 4 7 8 3 2 6 9 11 13 14 15 16 17 17 17 16 16 16 16 17 17 18 19 17 16 17 18 15 13 14 15 15 15 16 16 17 18 19 20 22 22 21 19 17 16 15 13 13 14
4 3 2 2 3 2 1 1 1 3 5 6 5 2 2 3 5 5 4 4 5 6 6 6 6 6 6 5 5 5 5 4 3 2 3 3 4 4 7 5 3 7 9 12 13 14 14 15 15 15 15 15 14 14 15 16 17 17 17 18 18 17 17 15 14 15 16 16 15 15 16 17 17 19 20 19 20 21 22 21 19 16 15 14 12 13
3 3 2 3 3 3 2 1 3 4 6 7 7 4 4 5 6 5 6 5 5 4 5 5 5 6 6 6 5 5 5 4 3 3 3 4 5 6 6 5 9 10 11 12 12 13 13 13 13 14 15 15 13 14 15 16 17 17 18 19 18 15 14 14 15 16 16 16 16 17 17 17 18 19 20 19 19 20 22 22 20 17 14 13 11 12
4 5 4 2 2 3 4 6 6 4 4 6 7 7 7 6 5 7 8 6 4 4 5 5 5 6 6 6 6 4 4 4 5 4 2 4 5 4 5 8 10 11 10 10 10 11 12 12 13 15 16 15 13 14 15 16 16 17 18 18 16 15 14 15 16 17 16 16 17 17 18 18 19 19 18 18 19 21 21 22 19 15 11 11 11 11
5 4 4 2 1 1 2 3 2 1 3 6 7 5 4 5 5 6 6 5 4 5 5 5 6 6 6 5 5 4 5 5 4 3 3 3 3 5 9 9 9 9 8 7 7 8 11 13 14 15 15 13 13 13 14 15 15 16 16 16 16 15 16 16 17 18 18 18 17 18 19 19 18 17 17 18 20 20 20 19 16 12 9 10 11 13
3 1 3 2 0 1 2 3 2 2 5 7 6 3 0 1 4 5 5 5 5 5 6 6 7 7 6 6 6 5 5 6 4 4 4 1 4 8 10 8 6 5 4 4 4 7 10 12 12 12 11 11 11 12 12 12 13 14 16 17 18 18 18 18 17 18 18 18 18 18 19 17 16 17 18 19 19 19 19 16 12 10 10 11 12 13
2 0 1 1 2 3 4 6 4 2 1 1 4 4 1 2 4 4 5 6 6 7 7 7 7 7 5 5 6 6 6 6 5 5 4 3 7 9 9 7 5 3 3 3 4 6 7 9 9 9 9 10 9 10 10 11 12 14 16 18 19 19 19 18 18 18 18 18 19 19 17 16 16 17 19 19 18 18 19 17 13 13 13 13 14 14
2 1 2 2 1 1 4 5 2 4 5 4 3 5 5 5 6 6 6 6 7 6 6 5 7 8 8 8 7 6 6 6 6 6 5 5 8 10 10 7 4 1 3 3 4 6 8 9 8 7 8 9 8 8 10 11 13 15 17 18 19 21 21 20 20 20 20 21 21 18 16 17 18 18 19 19 18 17 18 18 16 16 16 16 16 15
3 3 2 2 1 3 4 5 3 2 1 2 4 6 7 7 7 7 6 6 6 6 6 6 7 8 11 12 11 8 6 6 6 6 6 7 10 11 10 7 2 1 2 4 6 7 7 7 6 6 8 7 6 7 9 10 12 15 16 17 18 21 21 21 22 22 21 22 21 17 16 19 19 18 18 19 18 19 20 20 18 16 17 18 17 15
4 5 5 5 4 6 7 7 5 5 4 5 6 7 8 7 7 8 8 8 7 8 8 8 7 7 7 10 12 9 6 6 7 6 7 10 13 12 9 5 3 4 5 7 7 6 5 5 4 5 6 5 4 6 7 8 11 14 14 15 17 19 20 20 21 22 22 21 18 17 18 20 19 19 19 18 17 19 21 22 21 19 18 19 17 14
Wind_Direction
100 66 340 263 271 27 59 79 104 95 80 86 79 65 54 49 16 11 15 16 64 71 51 67 68 55 50 41 38 40 50 59 66 80 90 95 96 100 102 102 97 96 106 111 112 118 127 135 141 145 148 148 147 151 158 161 166 166 163 162 161 162 162 161 163 164 164 164 166 168 168 168 170 171 169 168 168 160 154 152 151 150 148 152 152 145
64 77 346 262 111 77 67 64 66 59 56 60 61 48 35 48 13 359 18 19 71 83 54 66 70 55 51 49 44 46 51 51 54 70 76 83 90 98 104 104 102 102 109 116 119 121 123 130 140 146 150 150 147 153 165 169 170 171 171 168 164 166 167 167 170 170 172 171 172 175 174 173 174 176 174 174 178 176 170 164 163 165 168 170 168 160
46 58 4 45 77 71 52 40 49 49 55 54 46 59 24 20 3 337 22 29 65 83 53 60 72 55 43 50 50 49 53 51 53 66 72 81 84 79 90 102 113 119 121 123 116 108 112 124 140 149 154 155 154 160 169 173 172 170 169 169 165 166 168 172 179 182 184 184 187 189 184 180 179 180 180 177 178 181 178 179 187 194 201 190 175 174
65 354 25 59 60 62 47 24 38 37 41 46 41 83 19 340 68 11 10 45 79 106 109 73 72 60 36 45 51 48 52 51 49 57 60 66 75 64 46 43 62 106 121 120 85 70 100 124 145 162 164 162 162 166 168 166 169 169 167 168 166 168 174 179 189 197 197 197 201 198 189 189 186 182 182 182 184 192 197 201 202 207 220 212 187 181
103 298 41 68 57 69 67 22 35 40 9 353 33 113 135 355 112 176 154 62 71 118 139 111 68 45 24 41 47 41 51 53 45 53 56 54 77 92 88 72 35 41 70 77 62 35 23 50 75 167 175 176 171 167 163 156 162 168 169 172 173 179 184 188 193 192 192 199 206 203 192 191 187 180 182 188 196 204 210 211 203 200 212 212 198 192
76 330 41 73 56 64 72 20 24 77 36 341 293 187 174 121 120 193 104 78 41 60 172 137 81 28 350 33 43 30 52 57 49 56 59 48 59 78 87 88 75 59 62 75 89 112 77 48 36 189 188 191 172 154 160 161 164 170 175 179 184 190 188 187 188 188 194 205 210 205 192 184 179 178 186 199 207 207 208 204 195 195 200 200 197 198
48 7 44 79 67 55 53 11 347 74 92 3 286 227 108 78 50 28 98 93 83 338 308 62 108 129 319 15 9 12 57 58 51 57 58 45 42 41 41 48 56 66 68 68 74 94 121 119 179 221 223 214 183 159 175 175 172 178 186 193 200 198 189 186 187 192 201 205 203 200 194 192 189 190 197 208 214 211 204 195 189 196 203 199 197 201
50 29 33 52 58 51 40 8 336 19 96 327 285 66 85 82 67 63 94 94 145 162 354 27 101 118 17 354 324 346 55 53 42 48 48 45 44 38 36 45 58 67 68 71 66 43 117 155 192 221 234 232 217 206 200 195 189 192 200 208 212 204 191 187 187 192 204 205 201 198 198 203 205 209 215 215 213 207 197 192 193 198 200 201 203 208
85 62 49 49 52 48 24 346 333 38 93 305 286 103 105 109 94 83 92 102 127 92 15 349 91 93 28 327 315 348 51 48 32 38 44 49 52 52 54 60 72 75 74 80 83 78 85 153 207 242 264 265 245 251 251 232 215 209 211 213 214 207 198 195 192 192 200 207 209 209 209 213 215 222 224 217 213 208 201 198 200 203 199 198 204 213
90 119 113 79 63 40 322 331 358 53 91 287 305 86 78 71 66 70 90 99 72 65 357 299 52 102 70 317 321 357 44 31 8 24 42 52 54 54 53 52 62 74 77 73 71 79 75 58 33 328 324 319 265 252 257 246 242 240 232 225 220 215 211 208 204 202 203 207 213 215 216 219 221 222 218 214 215 212 208 206 206 207 206 205 206 210
58 109 66 68 78 144 101 36 22 31 38 24 44 45 42 36 29 40 57 68 67 49 324 318 40 101 128 292 296 331 36 333 343 29 33 44 49 46 44 42 47 58 68 68 61 67 75 62 45 27 7 357 317 263 259 242 248 262 263 249 235 228 226 224 222 220 212 209 214 220 222 225 225 224 220 216 213 209 207 207 209 210 209 209 208 207
21 49 41 7 230 98 71 41 15 6 20 47 46 42 44 10 10 24 4 31 73 19 298 338 46 74 93 220 263 296 305 300 4 42 44 51 48 45 49 46 45 52 54 48 41 40 50 49 39 33 26 21 13 326 304 278 267 280 290 273 253 243 239 237 237 243 236 220 221 231 239 239 235 234 231 221 212 207 208 209 210 211 208 206 206 206
15 57 22 287 333 64 75 40 359 359 18 44 47 54 59 13 15 28 348 16 75 263 312 343 32 66 69 243 261 300 308 321 340 3 56 69 58 51 54 50 48 51 50 41 28 16 14 18 23 27 25 22 21 9 345 328 306 295 297 292 272 258 258 261 261 265 267 256 250 260 274 270 255 246 242 230 218 213 213 213 212 210 207 206 206 206
345 331 342 3 345 12 80 57 11 0 12 27 50 79 81 61 53 22 322 22 355 260 322 344 31 64 326 280 254 278 298 321 326 330 47 71 64 57 55 53 52 48 45 41 27 21 15 6 4 15 21 18 18 17 7 359 354 334 312 298 284 279 290 301 297 287 277 265 259 260 265 275 272 255 243 233 226 222 220 219 218 217 213 210 210 208
36 332 341 8 334 332 52 46 73 99 31 2 94 109 93 110 113 132 207 145 206 256 325 348 35 99 274 267 262 275 312 326 325 347 58 65 59 58 54 47 50 43 37 36 26 26 25 17 13 19 26 25 24 21 12 6 3 357 345 322 302 295 301 304 294 283 273 261 258 258 256 261 269 265 247 235 230 228 227 225 224 223 220 217 217 212
78 270 308 342 337 27 45 15 36 93 46 345 59 85 49 202 133 103 166 164 165 85 358 4 29 242 237 274 289 309 339 330 355 60 53 46 40 48 49 39 44 44 31 28 27 26 28 27 26 27 30 32 33 27 18 12 2 355 352 341 324 304 298 298 288 290 294 284 277 278 274 269 271 271 257 244 245 250 242 233 230 229 226 225 224 216
59 292 304 344 10 41 55 29 37 71 100 358 34 34 276 219 123 106 101 78 81 76 16 9 353 305 331 315 303 338 8 348 27 54 45 38 36 40 38 27 30 33 28 26 26 22 24 30 31 28 28 31 33 31 26 23 15 2 352 341 332 318 319 323 301 298 300 294 291 291 285 278 278 282 279 277 293 305 287 242 233 233 231 228 227 219
112 296 308 359 22 2 13 50 46 42 74 85 39 304 282 0 70 96 97 16 45 80 324 19 49 313 2 347 322 25 48 31 36 48 46 37 38 40 27 19 18 15 20 20 18 19 19 23 26 28 29 28 27 24 22 21 18 11 2 350 336 325 328 332 314 305 302 297 297 293 284 281 288 301 311 316 305 288 268 245 235 235 234 229 224 219
96 86 303 343 11 325 346 54 46 15 29 79 74 303 66 64 21 41 79 68 76 107 137 33 19 308 74 249 318 45 63 58 48 49 52 39 40 48 26 14 14 13 15 9 7 6 8 13 17 20 23 23 22 17 13 16 19 17 11 6 355 339 332 326 320 324 329 329 323 313 302 295 298 302 298 296 288 270 256 250 247 245 240 231 222 217
82 100 295 321 334 336 8 40 34 349 5 30 11 10 55 116 139 86 93 127 120 134 150 144 233 287 233 238 189 122 124 107 84 58 52 34 25 44 38 21 21 17 5 356 357 349 356 11 15 14 14 12 16 17 11 8 12 15 15 13 9 357 346 337 334 331 330 332 328 323 321 314 309 302 290 285 282 272 259 252 262 267 248 232 221 214
50 88 62 326 340 25 28 6 31 53 31 34 35 25 10 2 71 86 59 43 102 124 136 147 175 254 251 240 157 151 149 126 119 104 83 25 3 6 341 351 22 30 345 332 337 342 -0 18 21 16 13 9 11 14 12 5 360 3 10 13 12 9 2 351 344 335 327 331 328 321 321 322 322 314 301 293 287 281 269 257 267 277 250 230 220 212
51 81 96 350 5 69 76 333 57 92 95 95 91 69 46 51 70 76 24 334 50 113 148 165 163 249 251 205 165 163 149 146 145 127 115 84 47 25 316 313 315 281 270 277 302 340 7 23 24 16 10 8 5 1 2 1 356 354 -0 7 8 8 8 1 351 339 329 329 326 318 316 319 322 318 308 299 290 286 277 261 266 272 249 229 220 213
125 97 80 48 32 121 123 65 66 85 90 89 87 98 100 80 89 110 142 283 0 45 72 129 116 261 251 166 168 177 155 161 163 142 134 117 75 57 9 352 341 308 282 282 313 351 13 22 21 17 12 9 5 356 353 354 354 352 350 355 360 -0 1 359 354 348 338 330 324 319 316 315 319 319 312 302 291 285 279 264 258 263 251 229 214 208
65 66 60 22 314 308 329 359 39 61 69 67 27 33 88 77 105 146 170 171 49 7 5 83 64 270 269 146 158 175 162 160 162 157 146 112 59 35 29 14 1 353 339 339 351 13 29 30 24 21 13 6 2 359 356 357 0 1 357 354 354 357 2 -0 354 348 341 333 326 322 318 315 317 320 317 310 299 293 291 273 253 250 251 229 211 207
38 40 68 65 2 347 343 347 2 7 31 69 350 358 67 68 61 74 79 78 48 353 98 105 172 257 276 140 155 171 162 158 167 171 150 115 106 40 9 352 354 22 38 31 20 24 33 31 26 21 10 1 359 359 1 4 6 6 4 2 358 359 8 7 355 341 334 329 326 323 320 316 313 314 317 315 304 300 302 288 262 251 250 233 216 212
87 99 94 105 103 61 350 312 297 315 354 22 340 356 37 60 65 71 62 67 43 340 81 116 192 256 296 142 160 183 176 170 180 120 106 98 113 87 3 354 0 32 60 62 43 28 30 30 26 19 7 1 1 1 3 5 6 4 1 1 360 357 1 4 357 344 338 335 333 331 326 321 314 309 309 311 308 303 298 289 272 257 254 251 234 217
84 62 98 128 149 175 194 224 223 165 66 355 317 341 332 59 87 91 87 93 142 110 65 189 188 211 280 192 172 205 203 180 170 100 93 82 78 56 13 16 41 56 57 63 64 47 34 27 22 16 7 3 4 4 4 4 3 1 358 358 359 353 350 357 359 355 349 343 338 337 334 331 325 317 309 304 304 303 291 282 278 264 257 255 242 224
83 20 358 102 160 210 204 214 214 137 117 198 255 324 299 292 85 86 114 178 149 100 333 276 192 171 240 224 179 197 190 154 150 139 139 147 133 94 43 37 58 60 40 42 54 47 32 17 10 7 -0 358 -0 1 2 5 4 1 358 358 358 349 344 351 357 -0 357 350 343 339 338 338 334 326 317 307 300 299 289 272 264 259 256 251 241 232
99 32 297 356 323 284 229 206 192 136 141 199 220 234 244 213 121 116 170 193 138 124 214 244 166 170 226 235 196 188 167 151 156 167 166 153 139 108 96 96 81 70 57 45 38 23 12 4 5 2 349 345 350 352 353 359 2 358 356 359 359 352 344 342 350 359 359 352 348 345 344 347 345 336 326 315 306 302 295 283 268 256 254 252 242 235
102 269 279 8 341 322 304 206 178 134 143 227 259 242 205 185 171 148 175 198 136 141 197 178 146 174 215 217 210 186 155 149 147 154 154 145 146 104 95 106 94 80 89 83 48 303 316 351 6 6 354 346 345 347 349 354 357 356 356 360 5 4 355 340 338 354 358 352 351 352 349 349 350 345 338 328 319 313 305 296 286 267 255 253 249 242
77 309 287 67 32 338 335 239 182 126 141 222 300 301 197 153 129 109 155 192 117 130 180 136 134 191 239 225 202 138 135 139 133 150 177 182 165 108 93 111 132 146 161 167 180 269 316 351 2 0 356 349 344 345 351 356 359 3 5 7 13 16 13 -0 341 346 351 347 344 348 348 349 350 349 345 338 329 325 321 310 299 286 272 261 255 252
65 13 335 60 56 319 317 305 293 43 76 39 326 317 243 143 120 139 218 209 171 171 154 119 138 217 247 247 169 117 143 154 157 174 194 194 153 117 120 149 176 189 198 206 204 242 302 328 346 347 348 349 346 344 348 354 358 4 10 12 16 21 22 17 4 353 354 351 344 342 343 346 352 352 348 343 335 327 325 319 308 299 288 277 266 259
103 94 41 70 73 283 292 300 297 40 52 0 283 260 198 155 107 32 327 293 217 156 145 161 212 223 224 217 118 120 158 168 173 189 197 175 115 109 150 186 208 221 225 224 218 239 300 329 346 345 344 348 348 342 339 347 351 351 358 7 12 17 18 15 9 4 4 1 354 347 343 340 350 356 353 347 340 329 322 316 310 305 298 290 283 271
87 100 141 128 97 275 290 322 26 53 52 253 245 206 172 158 126 89 330 293 279 230 175 189 211 207 191 175 167 178 185 181 185 195 185 157 116 99 170 227 243 255 266 267 251 248 317 5 358 350 344 346 348 344 343 351 354 350 353 359 4 11 9 2 358 358 359 359 356 354 348 336 340 355 355 351 346 336 326 317 308 305 302 296 291 282
77 88 139 117 101 257 309 18 47 39 238 245 276 271 178 143 123 101 354 312 304 298 175 139 156 188 166 134 191 188 172 162 155 139 146 158 151 137 165 282 285 291 293 276 245 223 250 5 1 354 347 343 349 355 358 2 3 0 359 0 5 9 1 349 347 353 356 354 354 355 350 336 329 345 350 348 345 340 334 326 314 305 303 300 294 287
130 133 123 88 101 341 10 34 59 249 254 282 317 300 174 93 78 65 17 331 315 300 162 148 165 202 116 87 102 132 128 128 106 83 163 212 204 181 194 265 273 271 265 240 213 195 283 340 342 345 346 348 358 6 6 2 1 360 359 1 4 3 356 348 344 352 357 354 352 353 351 338 321 332 344 344 339 336 336 334 328 317 305 300 298 293
131 137 97 66 92 118 81 298 278 293 300 307 311 268 175 145 159 131 98 311 304 304 150 140 136 149 124 108 120 126 109 86 60 350 284 262 250 225 214 239 261 264 264 201 174 170 357 355 349 346 350 358 3 4 360 354 349 347 352 357 354 349 351 350 346 347 354 355 353 353 352 342 324 331 346 347 340 334 330 329 333 332 315 299 299 297
115 137 139 108 23 92 97 347 330 0 296 264 250 248 205 170 166 136 111 299 290 286 167 137 143 163 142 112 129 135 88 76 97 272 272 264 264 244 233 276 306 309 95 115 138 350 2 13 13 6 360 359 360 359 356 350 341 335 343 353 351 342 342 345 343 341 347 352 354 355 355 352 346 346 351 350 345 339 331 322 324 333 327 310 301 297
77 61 96 97 36 85 110 117 244 229 252 240 232 250 229 162 135 98 73 301 272 259 210 153 157 180 170 143 139 124 89 106 214 253 261 257 267 251 236 319 15 114 132 132 107 18 25 28 19 9 3 0 359 355 352 348 344 342 345 350 351 347 344 346 346 342 342 350 358 2 1 -0 358 354 351 347 344 342 337 325 314 320 327 321 310 302
64 34 61 102 208 168 134 176 230 228 242 231 225 236 215 139 91 74 35 270 255 250 224 158 159 188 179 159 138 112 120 178 213 242 244 245 259 239 221 318 147 177 184 80 60 45 38 27 14 8 4 360 356 354 355 356 355 356 356 355 356 356 355 353 352 351 352 359 8 10 5 1 357 351 347 345 344 343 341 331 313 307 318 323 318 311
66 42 114 156 180 159 152 198 258 262 239 224 220 214 176 101 68 81 221 238 221 230 231 155 155 183 168 151 152 157 193 208 212 232 245 240 212 230 280 309 265 223 92 66 61 40 28 22 16 9 1 357 358 2 9 11 7 5 3 1 3 4 358 354 356 3 9 8 7 4 358 356 353 350 349 351 352 349 345 335 316 303 309 318 318 314
192 169 141 157 167 167 165 181 277 284 241 200 186 175 113 90 91 213 217 212 171 179 188 155 156 170 158 156 175 183 208 223 209 206 257 257 220 262 310 328 330 93 69 64 53 36 28 24 17 9 3 3 5 8 13 14 10 7 5 2 1 356 350 352 1 10 12 8 4 2 359 356 353 353 354 356 356 355 354 349 330 308 303 311 314 313
176 167 228 208 183 156 96 85 37 281 241 182 148 102 80 150 207 207 193 205 188 167 161 161 172 172 159 169 196 190 186 191 185 215 275 272 255 286 323 346 73 86 68 58 47 35 27 19 12 8 5 4 5 8 11 11 7 5 1 356 354 352 353 2 9 8 5 5 4 1 0 358 355 354 354 355 356 356 356 358 351 327 306 302 310 314
183 173 205 235 199 136 117 200 210 221 218 179 157 180 209 202 195 161 153 197 216 179 157 165 187 190 168 164 185 188 169 171 204 250 285 292 298 327 356 58 92 82 66 58 46 30 19 11 5 -0 357 358 4 11 11 7 2 1 358 356 359 6 13 14 10 5 3 3 2 359 358 357 354 351 350 353 357 356 353 354 355 344 320 305 312 320
227 194 174 199 202 168 181 213 220 218 209 188 183 200 208 207 192 160 160 186 207 190 170 160 177 199 181 157 162 170 169 193 225 236 245 282 307 359 66 92 91 78 64 54 39 21 11 5 355 348 348 356 8 12 8 3 360 360 2 6 13 19 17 10 5 3 0 358 358 358 355 352 352 351 353 355 354 352 351 350 350 347 334 321 324 328
230 187 140 137 258 275 246 233 229 246 226 209 207 211 204 203 201 175 164 179 188 181 173 159 168 188 184 160 152 165 190 205 223 245 259 294 353 97 114 105 84 71 60 48 34 14 1 353 345 343 350 1 10 12 10 9 10 12 14 17 17 11 5 2 2 2 0 358 357 358 356 354 357 -0 0 358 351 348 349 352 354 358 355 342 337 333
274 133 107 108 52 350 295 297 306 260 238 221 211 221 333 183 190 170 155 166 172 167 169 170 171 176 173 157 145 159 199 204 207 254 275 312 99 123 126 111 88 74 61 37 12 358 353 354 357 3 8 9 9 13 15 17 22 25 22 19 15 10 7 6 5 4 4 1 357 357 357 359 3 5 1 358 354 352 352 355 359 3 359 348 340 333
272 171 147 187 173 176 237 275 303 323 280 210 178 191 189 128 150 152 147 155 164 171 179 182 173 162 160 160 151 157 193 206 204 225 237 149 138 147 142 132 120 88 44 14 7 14 23 33 37 31 15 3 6 17 22 22 23 23 22 21 19 14 11 11 10 7 5 0 356 358 2 4 2 358 355 354 356 356 356 355 351 345 342 341 339 332
172 187 205 191 200 280 263 260 305 38 32 38 120 164 174 157 150 153 158 164 171 174 175 181 176 163 162 172 169 167 194 218 215 205 188 150 153 163 160 149 136 49 11 32 62 70 67 60 48 25 5 3 14 25 25 24 22 21 23 24 19 11 9 10 8 4 0 358 358 2 6 4 357 351 349 349 351 353 354 353 348 340 336 338 341 337
157 211 211 157 193 276 246 221 196 114 105 227 188 173 180 176 157 153 165 177 178 169 159 170 188 181 174 179 182 178 194 225 230 206 173 155 161 167 166 164 161 27 59 100 100 91 74 61 43 14 6 11 22 29 28 25 22 22 24 23 16 11 9 7 4 1 359 357 0 5 3 356 352 351 349 347 346 347 347 347 347 345 341 341 343 343
179 198 187 163 195 228 223 212 188 142 165 221 216 193 193 182 154 157 180 189 186 180 169 167 182 195 198 201 199 196 206 232 232 203 159 157 169 172 168 168 147 108 117 126 119 100 78 67 38 6 10 21 22 23 29 27 21 20 19 19 16 12 8 5 4 2 358 356 360 3 358 352 350 351 351 348 345 342 341 342 343 344 344 344 344 344